Weather in Brooklyn

United States     42°20′39″N   75°10′14″W
temp.,
°C
wind,
m/s
gust,
m/s
humid.,
%
clouds,
%
prec.,
mm/h
press.,
hPa
HPBL,
m
26 may, thu
thu2623:00+13s41175100 0.0 1026486
02:00+10sse41373100 0.0 1026517
05:00+9s51561100 0.0 1025548
08:00+10s61567100 0.0 1024543
11:00+16s81263100 0.0 1022862
14:00+20ssw7106341 0.0 10201262
17:00+20ssw6107285 0.0 10181151
20:00+16s6138558 0.0 1018764
27 may, fri
fri2723:00+15s51491100 0.0 1018870
02:00+15s51491100 0.0 1016802
05:00+15s41295100 0.0 1014714
08:00+17s51392100 0.0 1013727
11:00+19ssw61386100 0.1 10121043
14:00+20ssw51288100 1.3 10101119
17:00+18ssw61393100 2.0 1010986
20:00+17s41295100 3.1 1009744
28 may, sat
sat2823:00+16s51296100 1.3 1008737
02:00+16s3997100 2.4 1006733
05:00+15s2798100 1.4 1005437
08:00+16sw1596100 2.3 1006294
11:00+15nnw3697100 2.5 1007472
14:00+15nw359597 3.3 1007566
17:00+16nnw479148 1.1 1008805
20:00+14nw499113 1.5 1010479
29 may, sun
sun2923:00+10nnw22975 0.0 101331
02:00+9nnw1197100 0.0 101411
05:00+8w11958 0.0 101510
08:00+12w119075 0.0 1017207
11:00+18nw226781 0.0 1017842
14:00+21nw235295 0.0 10171369
17:00+22wnw235917 0.0 10161329
20:00+17sw007791 0.0 101711
30 may, mon
mon3023:00+14sse22858 0.0 101810
02:00+12s2290100 0.0 101917
05:00+12s228798 0.0 101921
08:00+17ssw2481100 0.0 1019202
11:00+23wsw466298 0.0 1018770
14:00+27w585882 0.0 10151599
17:00+26wnw486788 0.0 1015978
20:00+22nw4108655 0.1 1016530